World > North America > United States > Massachusetts > Paxton  

Paxton, MA Hourly Weather Updates

Feedback E-mail the Weather

Quick Clicks

Paxton, MA Weather Maps

°F °C°F °C
Paxton Weather Map
UTC Time: 7/16/2024, 14:27
Your Time:

Paxton, MA Regional Weather

Expires:202407161500;;133091
ASUS41 KOKX 161410
RWROKX

Regional Weather Roundup
National Weather Service New York NY
1000 AM EDT TUE JUL 16 2024

Note: "FAIR" indicates few or no clouds below 12,000 feet with no
significant weather and/or obstructions to visibility.


CTZ002-004>006-009-010-012-RIZ004-006-007-MAZ004-011-015-161500-
Southern New England

 In CT
  
CITY           SKY/WX    TMP DP  RH WIND       PRES   REMARKS
Bradley Intl   PTSUNNY   83  70  64 W5        29.82S                  
Hartford       MOSUNNY   82  69  64 SE6       29.81F                  
Danbury        MOSUNNY   81  67  62 W7        29.85F                  
Wtrbury/Oxford MOSUNNY   78  68  71 VRB5      29.87S                  
Norwalk Harbor   N/A    N/A N/A N/A SW7         N/A                   
Bridgeport     MOSUNNY   83  70  64 SW8       29.83F                  
Meriden        MOSUNNY   82  67  60 VRB5      29.83F                  
New Haven      MOSUNNY   83  72  69 SW6       29.83F                  
Chester        SUNNY     84  70  61 SW8       29.85S                  
Groton         SUNNY     83  72  69 SW8       29.81F                  
Willimantic    SUNNY     81  69  67 W7        29.83S                  

 In RI
  
CITY           SKY/WX    TMP DP  RH WIND       PRES   REMARKS
Providence     MOSUNNY   84  70  62 W12       29.81F                  
Block Island   MOSUNNY   80  71  74 SW12        N/A                   
Westerly       SUNNY     81  70  69 SW9       29.83S                  
 
In MA
  
CITY           SKY/WX    TMP DP  RH WIND       PRES   REMARKS
Boston         MOSUNNY   84  68  58 W12       29.77S                  
Worcester      MOSUNNY   78  68  71 SW9       29.84R                  
Westfield      MOSUNNY   81  70  69 SW6       29.81F                  
Provincetown   SUNNY     82  75  79 SW13      29.79F                  
Nantucket      MOSUNNY   80  76  87 SW17G28   29.83S                  
$$


SKY/WX - Weather  TMP - Temperature  DP - Dew Point  RH - Humidity
WIND - Wind Direction/Speed PRES - Barometric Pressure VSB - Visibility
WCI - Wind Chill Index E13G22 Wind - East Wind 13 mph/Gusts of 22 mph

Trending Headlines

Trending Entertainment Headlines

Paxton Radar Loop

Use the map search tool if you want to place a location marker on the radar map...

Paxton Quick Facts

National Two Day Weather Forecast


E-mail the Paxton Weather Forecast

Voice your opinion or tell us about page issues...